[[{"header":{"parameterUnit":"m.s-1","parameterCategory":1,"la1":30.2991,"la2":30.254,"lo1":-89.0895,"lo2":-89.0444,"dy":0.0017,"dx":0.0017,"nx":28,"ny":28,"refTime":"2025-11-08T03:00:00:Z","depth":0,"parameterNumber":2,"parameterNumberName":"U-component_of_WINDS"},"data":[0,0,0,0,0,0,0,0,0,0,0,0,0,0,0,0,0,0,0,0,0,0,0,0,0,0,0,0,0,0,0,0,0,0,0,0,0,0,0,0,0,0,0,0,0,0,0,0,0,0,0,0,0,0,0,0,0,0,2.5018,2.5018,0,2.5045,2.5045,2.5045,2.5023,2.5022,2.5021,2.502,2.5047,2.5048,2.505,0,0,0,0,0,0,0,0,0,0,0,0,0,2.4949,2.4951,2.5018,2.5019,2.5019,2.5045,2.5045,2.5045,2.5023,2.5022,2.5021,2.502,2.5046,2.5048,2.505,0,0,0,0,0,0,0,0,0,0,0,0,0,2.4978,2.4951,2.5018,2.5011,2.5011,2.5045,2.5045,2.5045,2.5023,2.5022,2.5021,2.5019,2.5046,2.5048,2.505,2.5093,0,0,2.5058,2.5059,0,0,0,0,0,0,0,0,2.4976,2.498,2.5012,2.5011,2.5011,2.5029,2.503,2.5061,2.5024,2.5018,2.502,2.5019,2.5042,2.5045,2.5053,2.5094,2.5095,2.5058,2.5059,2.506,2.5061,0,0,0,0,0,0,0,2.4974,2.4979,2.5029,2.5012,2.5012,2.5007,2.5009,2.5036,2.5038,2.5019,2.5017,2.5021,2.5042,2.505,2.5053,2.5096,2.5058,2.506,2.5061,2.5062,2.5175,2.5176,0,0,0,0,0,0,2.4973,2.4978,2.5028,2.5029,2.499,2.5009,2.5012,2.5025,2.5037,2.5038,2.5022,2.502,2.5047,2.505,2.5054,2.5105,2.506,2.5062,2.5064,2.5173,2.5175,2.5177,0,0,0,0,0,0,2.4972,2.4978,2.5027,2.5003,2.5009,2.5012,2.5026,2.5026,2.5035,2.504,2.504,2.5031,2.5046,2.5051,2.5084,2.5106,2.5064,2.5066,2.5172,2.5174,2.5176,2.5208,0,0,0,0,0,0,2.497,2.4977,2.4993,2.5004,2.501,2.5056,2.5028,2.5028,2.5039,2.5036,2.5048,2.5048,2.5045,2.508,2.5086,2.5108,2.5068,2.517,2.5173,2.5175,2.5205,2.5211,2.5216,0,0,0,0,0,2.4967,2.5,2.4994,2.5,2.503,2.5057,2.5061,2.5057,2.5041,2.5057,2.5061,2.5048,2.5103,2.5084,2.509,2.5113,2.5168,2.5172,2.5175,2.5202,2.521,2.5216,0,0,0,0,0,0,2.4992,2.5002,2.4994,2.5032,2.5044,2.5053,2.5073,2.5065,2.5081,2.5078,2.5072,2.5075,2.511,2.5115,2.5094,2.5156,2.5133,2.5138,2.5151,2.5158,2.5164,2.5162,2.507,0,0,0,0,0,2.5001,2.5022,2.503,2.5062,2.5069,2.507,2.5082,2.5078,2.509,2.5095,2.51,2.5113,2.5133,2.5146,2.5165,2.5206,2.5208,2.5225,2.5231,2.5235,2.524,2.5263,2.5271,2.5189,2.5189,2.5189,0,0,2.5022,2.503,2.5043,2.5068,2.5076,2.5098,2.5074,2.5098,2.5115,2.5098,2.513,2.5135,2.5148,2.5186,2.5203,2.5191,2.5263,2.524,2.5244,2.5245,2.5267,2.5275,2.5282,2.5191,2.5191,2.519,0,0,2.507,2.5078,2.5106,2.5116,2.513,2.5131,2.5138,2.5149,2.5152,2.5184,2.5172,2.5192,2.5226,2.5237,2.5247,2.5302,2.5291,2.5308,2.5337,2.536,2.5367,2.5372,2.5392,2.5399,2.5312,2.5312,2.5312,0,2.5093,2.5125,2.5122,2.5147,2.5159,2.5146,2.5175,2.5184,2.5204,2.5212,2.5199,2.5243,2.5251,2.5292,2.5305,2.5314,2.5322,2.5306,2.5366,2.5372,2.5377,2.5396,2.5403,2.5314,2.5314,2.5314,2.5314,0,2.5154,2.5177,2.5198,2.5218,2.5232,2.5259,2.526,2.5275,2.527,2.5273,2.5307,2.5316,2.5337,2.5347,2.5342,2.5387,2.538,2.5367,2.5343,2.5387,2.5405,2.5412,2.5317,2.5316,2.5316,2.5315,0,0,2.5216,2.5235,2.5242,2.5252,2.5267,2.5285,2.5313,2.5334,2.5347,2.5361,2.5384,2.5415,2.5404,2.5415,2.5412,2.5432,2.5476,2.5417,2.5417,2.5427,2.5527,2.5536,2.5545,2.547,2.5471,2.5472,2.5526,0,2.5264,2.5312,2.531,2.5354,2.5376,2.5365,2.5389,2.5402,2.5406,2.5425,2.543,2.5452,2.5435,2.5442,2.5461,2.5466,2.5496,2.5463,2.5491,2.5492,2.5488,2.5554,2.5564,2.5614,2.5533,2.5534,2.5535,0,2.5327,2.5344,2.5391,2.5405,2.5414,2.5436,2.5456,2.5475,2.5489,2.5491,2.5505,2.5499,2.5528,2.5504,2.5544,2.5522,2.5534,2.5538,2.554,2.5542,2.5515,2.5558,2.5629,2.5637,2.5546,2.5545,2.5544,0,2.5368,2.5403,2.5436,2.5444,2.5461,2.5477,2.5485,2.5498,2.5511,2.5529,2.5538,2.5559,2.557,2.5587,2.5588,2.5571,2.5628,2.5605,2.5631,2.5631,2.5642,2.5641,2.5717,2.5651,2.5651,2.5651,2.565,0,2.5422,2.5451,2.5455,2.5475,2.5507,2.5506,2.5539,2.5545,2.5557,2.5579,2.5571,2.5592,2.5591,2.5613,2.5614,2.5647,2.5652,2.5655,2.5654,2.5655,2.5655,2.5662,2.5658,2.5653,2.5652,2.5652,2.5651,0,2.5472,2.5476,2.5511,2.5525,2.5529,2.5553,2.5565,2.5584,2.5589,2.5616,2.5623,2.5629,2.5654,2.5657,2.5685,2.5686,2.5726,2.5723,2.5721,2.5721,2.5746,2.5744,2.5829,2.584,2.5767,2.5768,2.5768,0,2.5506,2.5529,2.5546,2.556,2.5569,2.5591,2.5605,2.5606,2.5621,2.564,2.5658,2.5682,2.5701,2.5742,2.5749,2.5772,2.5768,2.5797,2.5771,2.5772,2.5769,2.5767,2.577,2.5801,2.5802,2.5803,2.5803,0,2.5567,2.5568,2.5588,2.561,2.5627,2.5644,2.566,2.5672,2.5675,2.5692,2.5718,2.5733,2.5763,2.5788,2.581,2.5819,2.5812,2.5811,2.5818,2.5819,2.5817,2.5819,2.5734,2.5809,2.5808,2.5808,2.5808,2.5807,2.561,2.563,2.5645,2.5668,2.5681,2.5697,2.5716,2.5723,2.5745,2.5769,2.5769,2.5797,2.5813,2.5843,2.5853,2.5876,2.5867,2.5877,2.5879,2.5882,2.5885,2.5815,2.588,2.588,2.588,2.588,2.588,0,2.567,2.5679,2.5701,2.5724,2.5743,2.5736,2.5754,2.577,2.5795,2.5811,2.5831,2.5861,2.5885,2.5896,2.592,2.5936,2.5934,2.5942,2.5941,2.5943,2.5891,2.5883,2.5944,2.5944,2.5944,2.5944,2.5944,2.5944,2.5703,2.5736,2.574,2.578,2.5789,2.5817,2.5828,2.5843,2.5856,2.589,2.591,2.5917,2.5931,2.5957,2.5979,2.5981,2.5991,2.6001,2.6002,2.5953,2.5947,2.594,2.5932,2.6003,2.6003,2.6052,2.6052,2.6053]},{"header":{"parameterUnit":"m.s-1","parameterCategory":1,"la1":30.2991,"la2":30.254,"lo1":-89.0895,"lo2":-89.0444,"dy":0.0017,"dx":0.0017,"nx":28,"ny":28,"refTime":"2025-11-08T03:00:00:Z","depth":0,"parameterNumber":3,"parameterNumberName":"V-component_of_WINDS"},"data":[0,0,0,0,0,0,0,0,0,0,0,0,0,0,0,0,0,0,0,0,0,0,0,0,0,0,0,0,0,0,0,0,0,0,0,0,0,0,0,0,0,0,0,0,0,0,0,0,0,0,0,0,0,0,0,0,0,0,-8.0455,-8.0457,0,-8.063,-8.0631,-8.0633,-8.0564,-8.056,-8.0556,-8.0552,-8.0724,-8.0732,-8.0741,0,0,0,0,0,0,0,0,0,0,0,0,0,-8.0056,-8.0064,-8.0455,-8.0457,-8.0459,-8.0629,-8.0632,-8.0634,-8.0565,-8.056,-8.0555,-8.055,-8.0721,-8.0731,-8.0741,0,0,0,0,0,0,0,0,0,0,0,0,0,-8.023,-8.0066,-8.0454,-8.0445,-8.0446,-8.0629,-8.0632,-8.0635,-8.0566,-8.056,-8.0553,-8.0548,-8.0718,-8.073,-8.0743,-8.0942,0,0,-8.0781,-8.0786,0,0,0,0,0,0,0,0,-8.022,-8.0244,-8.0444,-8.0446,-8.0448,-8.0569,-8.0554,-8.0738,-8.0567,-8.052,-8.0552,-8.0545,-8.0677,-8.0692,-8.0738,-8.0951,-8.0958,-8.0782,-8.079,-8.0795,-8.0799,0,0,0,0,0,0,0,-8.0208,-8.0236,-8.0524,-8.0447,-8.0449,-8.0431,-8.0449,-8.0588,-8.063,-8.0524,-8.0519,-8.0541,-8.0677,-8.0727,-8.0742,-8.096,-8.0782,-8.0793,-8.0801,-8.0806,-8.1346,-8.1352,0,0,0,0,0,0,-8.0196,-8.0227,-8.0518,-8.0529,-8.0317,-8.0443,-8.0463,-8.0536,-8.0629,-8.0637,-8.0546,-8.0537,-8.0708,-8.0727,-8.0748,-8.0989,-8.0795,-8.0807,-8.0814,-8.1339,-8.1347,-8.1355,0,0,0,0,0,0,-8.0188,-8.0223,-8.0511,-8.0377,-8.0412,-8.0456,-8.0539,-8.0543,-8.0593,-8.0646,-8.0652,-8.059,-8.0704,-8.073,-8.0895,-8.0994,-8.0813,-8.0824,-8.1331,-8.1342,-8.1351,-8.1472,0,0,0,0,0,0,-8.0177,-8.022,-8.0298,-8.0379,-8.042,-8.0658,-8.0545,-8.055,-8.0615,-8.0605,-8.0689,-8.0696,-8.0701,-8.0877,-8.0908,-8.1008,-8.0834,-8.1322,-8.1336,-8.1348,-8.1459,-8.1485,-8.1507,0,0,0,0,0,-8.0163,-8.0323,-8.0302,-8.0338,-8.0518,-8.0664,-8.0686,-8.0691,-8.0623,-8.0701,-8.0735,-8.0694,-8.0978,-8.0894,-8.0929,-8.1034,-8.1316,-8.1332,-8.1347,-8.1448,-8.148,-8.1506,0,0,0,0,0,0,-8.025,-8.0334,-8.0311,-8.0503,-8.0577,-8.0652,-8.075,-8.0723,-8.0816,-8.0803,-8.0802,-8.0821,-8.0992,-8.1029,-8.0935,-8.1232,-8.1137,-8.116,-8.1202,-8.1232,-8.1256,-8.1243,-8.0844,0,0,0,0,0,-8.0292,-8.0405,-8.0471,-8.0634,-8.0673,-8.0705,-8.0769,-8.0766,-8.0841,-8.0872,-8.0918,-8.0991,-8.1097,-8.1166,-8.1266,-8.1464,-8.1481,-8.1553,-8.1577,-8.1596,-8.1616,-8.1724,-8.1757,-8.1405,-8.1405,-8.1405,0,0,-8.0379,-8.0439,-8.051,-8.0653,-8.071,-8.0826,-8.0732,-8.0858,-8.0944,-8.089,-8.105,-8.1087,-8.1168,-8.1351,-8.1433,-8.1387,-8.1717,-8.1616,-8.1631,-8.164,-8.1743,-8.1776,-8.1806,-8.1415,-8.1414,-8.1412,0,0,-8.0597,-8.0654,-8.0796,-8.0856,-8.0944,-8.0965,-8.1,-8.1079,-8.1102,-8.1263,-8.1226,-8.1326,-8.1508,-8.1568,-8.1623,-8.1866,-8.1831,-8.1898,-8.2022,-8.2127,-8.2155,-8.2179,-8.2266,-8.2298,-8.1917,-8.1918,-8.1918,0,-8.0693,-8.0868,-8.0872,-8.1003,-8.1067,-8.1026,-8.117,-8.1227,-8.1343,-8.1387,-8.1334,-8.1563,-8.1615,-8.1811,-8.1871,-8.1916,-8.1955,-8.1888,-8.2151,-8.2176,-8.2199,-8.2281,-8.2314,-8.1925,-8.1924,-8.1924,-8.1923,0,-8.0983,-8.1105,-8.1209,-8.1325,-8.1401,-8.1537,-8.156,-8.1636,-8.1627,-8.1653,-8.1817,-8.1878,-8.1991,-8.2037,-8.2028,-8.2233,-8.2202,-8.215,-8.2054,-8.224,-8.2318,-8.2349,-8.1936,-8.1933,-8.1931,-8.1929,0,0,-8.126,-8.1378,-8.1416,-8.1469,-8.1564,-8.1658,-8.1792,-8.1904,-8.197,-8.2051,-8.2163,-8.2319,-8.2272,-8.2334,-8.2331,-8.2424,-8.2613,-8.2361,-8.2363,-8.2406,-8.2843,-8.2882,-8.2918,-8.2591,-8.2597,-8.2602,-8.2836,0,-8.1486,-8.1724,-8.1732,-8.1949,-8.2062,-8.2025,-8.2142,-8.2212,-8.2241,-8.2339,-8.2368,-8.248,-8.241,-8.2447,-8.2537,-8.2571,-8.2701,-8.2554,-8.2694,-8.2699,-8.2675,-8.2959,-8.3,-8.3219,-8.2867,-8.2872,-8.2876,0,-8.1781,-8.1875,-8.2104,-8.2185,-8.2232,-8.2338,-8.2442,-8.2537,-8.2615,-8.2629,-8.27,-8.2684,-8.282,-8.272,-8.2906,-8.2806,-8.2864,-8.2889,-8.2898,-8.2911,-8.2799,-8.298,-8.3289,-8.3322,-8.2923,-8.292,-8.2916,0,-8.1961,-8.2144,-8.2305,-8.2351,-8.2449,-8.2524,-8.2568,-8.2641,-8.2709,-8.2799,-8.2843,-8.2947,-8.3004,-8.3084,-8.3096,-8.3022,-8.3284,-8.3184,-8.3298,-8.3298,-8.3355,-8.3351,-8.3677,-8.3392,-8.3391,-8.3391,-8.339,0,-8.2213,-8.2354,-8.2388,-8.2487,-8.2645,-8.2652,-8.2807,-8.2844,-8.291,-8.3015,-8.2988,-8.3087,-8.3097,-8.3198,-8.3208,-8.3361,-8.3387,-8.3401,-8.3402,-8.3404,-8.3402,-8.3442,-8.3427,-8.3399,-8.3397,-8.3396,-8.3394,0,-8.244,-8.2469,-8.2642,-8.2721,-8.2745,-8.2857,-8.2924,-8.3018,-8.3044,-8.3177,-8.3209,-8.3249,-8.3366,-8.3387,-8.3524,-8.3531,-8.3715,-8.37,-8.3689,-8.3688,-8.3801,-8.379,-8.4163,-8.4213,-8.3895,-8.3898,-8.39,0,-8.2599,-8.2708,-8.28,-8.287,-8.2918,-8.303,-8.31,-8.311,-8.3184,-8.3283,-8.3365,-8.3481,-8.3574,-8.3763,-8.3803,-8.3909,-8.3896,-8.402,-8.3912,-8.3911,-8.3899,-8.3893,-8.3904,-8.4041,-8.4044,-8.4047,-8.4049,0,-8.2879,-8.2888,-8.299,-8.3099,-8.3184,-8.3269,-8.335,-8.3408,-8.3429,-8.3512,-8.3634,-8.3707,-8.3849,-8.3964,-8.4069,-8.4111,-8.4085,-8.4083,-8.4115,-8.4118,-8.4108,-8.4116,-8.3747,-8.4074,-8.4072,-8.407,-8.4069,-8.4068,-8.3077,-8.3173,-8.3253,-8.3369,-8.3431,-8.3507,-8.3601,-8.3639,-8.3742,-8.386,-8.386,-8.3993,-8.4069,-8.4208,-8.4258,-8.4361,-8.4321,-8.4367,-8.4379,-8.4391,-8.4402,-8.4092,-8.438,-8.4379,-8.4379,-8.4378,-8.4378,0,-8.3356,-8.3406,-8.3513,-8.3628,-8.3719,-8.3688,-8.3776,-8.3853,-8.3972,-8.4046,-8.4139,-8.4279,-8.4391,-8.4441,-8.455,-8.4624,-8.4614,-8.4652,-8.4647,-8.4657,-8.4431,-8.4393,-8.4658,-8.4658,-8.4658,-8.4658,-8.4658,-8.4658,-8.3511,-8.3672,-8.3691,-8.3881,-8.393,-8.4063,-8.4116,-8.4186,-8.4246,-8.4404,-8.4498,-8.4531,-8.4595,-8.4709,-8.481,-8.4822,-8.4863,-8.4908,-8.4913,-8.4701,-8.4673,-8.4646,-8.461,-8.4917,-8.4917,-8.5131,-8.5133,-8.5134]}]]